Vertical_Velocity
-4 4 -2 -6 -3 -3 1 2 2 -3 3 0 -3 -1 -5 -2 5 3 -2 0 -0 2 -3 -2 -2 -2 -0 -0 2 1 -0 -1 -2 -1 -3 -1 -2 -2 -1 -1 -4 -5 -4 -1
7 -2 -7 -0 1 2 1 1 -4 -4 1 1 -0 -6 -4 -0 -8 -10 -5 -2 -2 2 5 4 1 -4 -3 -2 1 2 1 -0 -3 -2 -2 -2 -3 -1 -2 -1 -3 -3 -3 -2
-0 -4 1 2 1 2 -1 1 -1 2 1 0 4 -5 -0 -7 4 10 1 -1 -0 -2 1 4 -2 -7 -2 -2 6 -1 4 -1 -2 -1 -4 -2 -0 -2 -3 -2 -5 -1 -2 -1
-4 -8 -1 1 -0 2 4 -1 1 0 1 -2 -4 -6 -5 -3 -2 2 3 -1 -3 -4 5 4 -0 -4 -6 -5 -1 2 -1 0 -0 -2 -2 -2 -3 -5 -3 -2 0 -1 -2 -2
-8 0 1 2 -10 2 -6 -1 -1 0 1 6 -3 6 -10 2 2 -1 -2 1 -3 -5 -2 1 1 -2 -5 -2 -3 -1 0 2 -0 1 -3 -4 -5 -3 -4 -2 -3 -4 -2 -1
-6 -1 2 -9 -0 1 0 0 1 0 1 5 -8 6 -8 -2 -8 -1 1 1 -0 -2 -3 4 -1 -0 -1 -2 -1 1 -1 0 2 -3 -2 -2 -2 -2 -1 -2 -3 -1 -2 -3
2 -4 -0 4 -0 -0 2 2 0 3 4 -8 -1 11 -21 -2 -1 -0 -1 1 -2 1 -2 2 -2 -4 1 -3 -0 -0 -1 0 -2 -3 0 -2 -2 -2 -3 -4 -1 -2 -3 -6
1 7 -0 -3 -8 -11 -4 -5 -5 -2 -1 -8 0 -4 -14 -3 0 0 -2 -2 1 -1 -2 -4 -3 -3 -2 -2 -0 -0 -2 -2 -2 0 -3 -3 -1 0 -1 -1 -2 -3 -1 -3
3 -7 1 0 -1 2 -0 4 -13 5 -1 8 -4 -9 -2 1 3 2 2 0 0 -3 -3 -5 -3 -3 -0 -1 -2 -2 -3 -2 0 -2 -3 2 -1 -1 -1 -1 -2 -2 -2 -5
-8 3 -6 3 7 -0 7 -2 -0 2 0 0 -4 -2 -7 1 2 2 2 -1 0 1 -1 -2 -2 -2 -0 1 -2 -1 -0 -2 -3 -2 1 -1 -1 -4 -3 -1 -1 3 -9 1
1 12 -3 -5 0 -9 3 3 3 -1 -0 -1 -1 -9 -3 2 1 -2 -1 -2 -3 -2 -2 -2 -1 1 0 1 -0 0 -2 1 2 -1 2 2 -5 -4 -3 -2 -2 -4 0 3
-15 -2 1 -21 -6 -5 -5 -6 -4 2 -3 -3 0 -25 -0 0 -1 -2 -1 -3 -3 -3 -2 1 0 -0 -2 -2 0 -0 1 -1 -3 0 1 -4 -3 -0 -2 -3 1 -1 2 0
-3 -3 2 -7 10 1 3 -4 -2 1 4 -9 11 -18 0 0 2 2 -2 0 -4 -2 0 0 1 -3 -1 -1 -1 -0 0 -3 -2 1 1 -2 -1 -1 -3 -4 -3 -1 -2 -7
-2 1 -1 -12 -26 -5 3 1 0 4 10 -15 -11 -11 -2 1 -0 2 -1 2 1 -2 -3 -4 -1 -1 0 0 -1 -2 -4 -4 -1 -1 -2 -2 -3 -5 -5 -1 -1 -1 -0 -2
8 2 9 -6 -2 4 -3 -3 -1 5 -16 8 -22 1 -11 -5 -3 -6 -12 3 2 -1 -1 -4 -3 -2 -1 1 2 2 -1 2 4 1 -2 -2 -1 -2 -2 -1 -4 -2 2 1
-8 -7 6 -6 -2 4 2 -2 1 -0 -2 4 3 -13 -4 -3 5 4 -2 0 -1 3 1 -3 2 -1 -3 0 -3 -1 -1 1 -2 -1 -4 -1 2 -3 -3 -5 -0 5 1 2
8 2 3 -14 1 5 21 -17 -3 -3 -0 -5 1 -41 -1 -2 -0 -4 -4 -0 -1 2 -1 -1 -3 -4 -3 -2 1 -4 -1 1 -2 -4 4 2 -3 -1 -2 3 2 0 1 -3
1 6 3 -6 9 23 -41 -2 -0 1 -6 -0 3 -4 -3 -5 -7 0 5 -3 -2 -1 -2 3 1 -1 -1 -1 3 4 5 2 2 1 -1 -2 0 -3 3 1 -1 -2 -3 -3
3 4 -1 7 1 -16 -0 -9 0 0 -16 -3 -3 -4 -4 -2 7 1 -8 0 -4 -2 -0 -2 -1 -1 -0 1 1 -2 -1 -2 -1 -1 -4 -2 -0 3 -1 -4 -2 -3 -2 -4
3 4 11 3 4 -1 -25 -8 -1 -2 -10 -2 2 -4 -1 3 8 -10 1 -6 1 -1 -0 -4 -3 -2 1 0 -2 0 -2 -2 -2 -5 -4 2 1 -2 -4 -4 -2 -2 1 -2
1 0 0 -1 1 -12 -2 -4 3 17 -22 -0 2 -3 1 -2 -10 -5 -1 5 2 -3 -3 -2 1 -1 -2 -2 -0 -2 -3 -4 -5 -1 5 -1 -1 -1 -3 -4 0 -1 1 -4
8 4 -1 1 2 -9 2 -15 -7 11 -11 9 3 5 3 2 2 1 1 -2 -2 -6 -4 0 0 1 1 1 -3 -2 -2 -3 -3 -1 -1 -0 -1 -5 -3 -1 -1 2 -2 -0
-5 6 5 3 -6 -5 -5 -2 -9 12 9 -1 3 -3 6 1 2 0 -0 -3 0 -3 -3 -0 -1 -0 0 -4 -4 -0 -2 2 2 1 -1 -2 -2 -1 -1 -3 -2 2 2 -1
-5 2 2 6 -14 -5 -2 3 -1 -5 -11 -7 -1 5 2 7 5 0 -0 -1 1 3 -1 -1 -0 -1 -2 0 -2 -4 -1 -1 -1 -1 -0 0 -1 -2 -2 2 1 1 2 4
-4 6 -3 -11 -9 -4 -8 1 -1 -2 -11 -2 1 -2 7 -4 3 6 2 -0 -2 1 -1 0 -2 -2 -0 0 -1 2 4 -0 -1 -2 -3 -3 -0 1 -1 -2 -1 -2 8 5
-2 -10 5 -13 -4 12 -7 -6 2 8 4 -0 -0 7 2 3 -4 4 1 -3 -0 -0 0 -1 -2 -1 1 0 -1 -1 -2 -1 -3 -3 -1 -2 -1 -1 1 -1 -7 2 7 -3
Height
1522 1524 1523 1517 1516 1511 1511 1514 1512 1503 1501 1513 1515 1513 1511 1512 1513 1513 1513 1515 1517 1519 1523 1525 1526 1528 1530 1532 1533 1534 1535 1535 1534 1535 1535 1534 1534 1532 1531 1529 1528 1526 1525 1524
1520 1523 1510 1506 1505 1509 1510 1516 1515 1505 1507 1511 1512 1508 1501 1499 1497 1498 1502 1506 1509 1514 1517 1519 1520 1522 1525 1527 1529 1530 1530 1530 1530 1531 1531 1531 1529 1529 1527 1527 1526 1524 1522 1520
1512 1506 1502 1506 1506 1510 1512 1515 1513 1511 1507 1507 1511 1509 1494 1485 1487 1488 1490 1494 1500 1504 1509 1512 1512 1515 1519 1522 1525 1526 1527 1526 1526 1526 1527 1526 1526 1525 1525 1524 1522 1521 1520 1518
1505 1502 1504 1506 1506 1507 1515 1503 1504 1509 1515 1528 1507 1522 1492 1479 1478 1477 1478 1484 1489 1495 1501 1505 1505 1508 1512 1516 1520 1521 1522 1522 1522 1522 1522 1522 1522 1521 1521 1520 1519 1518 1517 1515
1504 1504 1507 1507 1504 1501 1507 1505 1508 1510 1515 1517 1510 1523 1488 1468 1468 1467 1467 1473 1479 1485 1493 1496 1499 1502 1507 1510 1513 1515 1517 1518 1519 1519 1518 1518 1518 1518 1516 1516 1515 1514 1513 1512
1499 1500 1500 1499 1499 1501 1504 1510 1512 1512 1519 1531 1506 1507 1483 1474 1459 1458 1458 1463 1470 1477 1484 1490 1495 1499 1501 1505 1508 1509 1512 1514 1514 1514 1515 1514 1514 1513 1512 1511 1510 1510 1509 1507
1499 1495 1495 1496 1503 1504 1507 1513 1529 1535 1535 1522 1480 1488 1470 1450 1450 1453 1456 1460 1465 1472 1478 1484 1488 1492 1496 1498 1502 1504 1506 1508 1509 1510 1510 1510 1509 1509 1507 1507 1506 1505 1504 1502
1496 1500 1490 1487 1489 1496 1502 1503 1515 1520 1516 1497 1485 1495 1467 1446 1446 1451 1453 1458 1463 1469 1473 1478 1482 1486 1489 1492 1496 1497 1500 1502 1503 1505 1505 1505 1505 1504 1503 1503 1502 1501 1499 1497
1484 1477 1465 1471 1475 1483 1492 1503 1490 1499 1490 1502 1478 1460 1446 1440 1447 1448 1450 1455 1458 1463 1467 1471 1475 1479 1483 1486 1489 1492 1494 1497 1498 1499 1500 1501 1500 1500 1499 1499 1498 1496 1495 1493
1466 1477 1460 1467 1476 1477 1478 1481 1502 1503 1509 1507 1472 1466 1461 1439 1440 1443 1447 1449 1454 1458 1462 1465 1468 1472 1477 1481 1484 1487 1489 1491 1493 1494 1496 1496 1495 1494 1494 1494 1492 1491 1489 1488
1463 1471 1468 1471 1470 1470 1481 1484 1479 1477 1478 1486 1480 1464 1429 1433 1431 1437 1440 1444 1447 1451 1454 1458 1462 1467 1472 1476 1479 1481 1484 1486 1488 1490 1491 1490 1489 1489 1489 1488 1487 1486 1484 1483
1454 1462 1467 1463 1453 1454 1456 1459 1463 1473 1471 1460 1457 1446 1420 1422 1426 1428 1434 1438 1443 1447 1450 1454 1458 1462 1466 1469 1473 1475 1478 1480 1483 1484 1485 1484 1484 1484 1484 1483 1482 1481 1479 1477
1453 1457 1468 1460 1459 1453 1452 1450 1453 1454 1458 1453 1456 1438 1416 1418 1420 1423 1427 1431 1436 1440 1444 1449 1453 1456 1459 1462 1466 1470 1472 1474 1477 1478 1479 1479 1479 1480 1479 1478 1477 1476 1474 1471
1446 1447 1448 1450 1439 1441 1451 1444 1441 1445 1454 1437 1441 1430 1424 1422 1421 1423 1424 1426 1428 1432 1436 1441 1446 1450 1453 1457 1459 1463 1466 1468 1470 1472 1473 1473 1474 1474 1473 1472 1471 1469 1468 1465
1451 1446 1436 1429 1425 1422 1419 1425 1428 1430 1421 1435 1419 1416 1409 1414 1416 1415 1415 1419 1424 1426 1429 1432 1436 1441 1446 1451 1454 1457 1460 1463 1465 1466 1467 1468 1469 1469 1468 1467 1465 1463 1462 1460
1468 1457 1439 1425 1420 1418 1417 1409 1407 1412 1410 1413 1418 1402 1401 1405 1404 1405 1411 1413 1416 1418 1419 1424 1428 1433 1439 1444 1448 1451 1454 1457 1459 1461 1462 1463 1464 1464 1463 1461 1460 1458 1456 1453
1482 1470 1460 1439 1418 1410 1410 1397 1394 1395 1396 1401 1410 1378 1400 1398 1402 1400 1401 1403 1406 1410 1414 1416 1420 1425 1431 1437 1441 1445 1449 1452 1454 1456 1458 1458 1459 1458 1457 1456 1454 1452 1449 1446
1462 1462 1461 1443 1434 1407 1379 1377 1379 1384 1381 1384 1384 1378 1387 1389 1392 1392 1393 1396 1399 1404 1409 1412 1415 1420 1426 1431 1436 1440 1444 1446 1449 1451 1452 1453 1453 1453 1452 1450 1448 1445 1443 1441
1448 1447 1441 1431 1422 1401 1376 1370 1370 1373 1375 1371 1375 1374 1378 1380 1386 1382 1387 1390 1394 1399 1403 1407 1411 1416 1422 1427 1431 1435 1438 1441 1444 1445 1447 1448 1448 1447 1445 1443 1441 1439 1437 1435
1434 1435 1434 1434 1409 1394 1380 1363 1359 1367 1377 1367 1369 1364 1368 1375 1383 1373 1378 1383 1388 1394 1399 1403 1407 1412 1416 1421 1426 1430 1434 1437 1439 1441 1442 1443 1442 1441 1439 1437 1435 1433 1432 1429
1428 1433 1436 1428 1428 1411 1383 1362 1359 1377 1376 1363 1363 1358 1361 1365 1363 1367 1371 1376 1383 1389 1395 1400 1404 1408 1412 1418 1422 1426 1430 1433 1436 1437 1438 1437 1437 1435 1434 1432 1430 1428 1425 1423
1424 1426 1424 1418 1417 1415 1390 1371 1384 1398 1382 1373 1367 1359 1357 1357 1359 1363 1368 1373 1378 1385 1392 1397 1401 1406 1410 1415 1419 1423 1427 1430 1432 1432 1432 1432 1431 1430 1428 1427 1424 1422 1419 1417
1431 1420 1417 1416 1403 1396 1392 1392 1390 1390 1390 1379 1376 1368 1363 1361 1361 1365 1369 1373 1378 1382 1388 1394 1398 1403 1407 1411 1416 1420 1423 1426 1427 1427 1426 1426 1426 1425 1424 1422 1419 1416 1414 1412
1415 1414 1414 1418 1391 1390 1388 1383 1391 1388 1391 1384 1381 1375 1369 1369 1366 1366 1371 1376 1380 1382 1386 1391 1395 1400 1405 1409 1412 1416 1419 1421 1422 1421 1421 1422 1421 1420 1419 1417 1415 1412 1409 1405
1414 1415 1404 1398 1379 1388 1386 1386 1382 1376 1377 1373 1374 1375 1370 1371 1373 1369 1371 1374 1380 1383 1385 1389 1393 1398 1403 1406 1410 1414 1415 1416 1417 1417 1417 1417 1416 1415 1413 1411 1409 1407 1404 1401
1406 1403 1402 1388 1390 1387 1381 1380 1381 1377 1372 1369 1367 1366 1369 1370 1370 1372 1371 1375 1379 1380 1383 1386 1392 1397 1401 1404 1407 1410 1411 1412 1412 1412 1412 1411 1410 1409 1407 1405 1402 1401 1398 1396